period_start,C,m1,H,J0,J1,J2,J3,J4,J5,JA,JB,JC,JD,JJ,JK,JN,#
2016-08-01 00:01:53,-0.00,2.44,0.00,28.44,32.27,34.86,14.10,47.78,1011.72,2014.81,2531.11,2426.93,2728.01,599.85,582.30,55.33,0000 0000 0000 0000 000000
2016-08-01 00:06:55,0.00,2.44,0.00,28.43,32.27,34.90,14.20,47.90,1011.70,2014.81,2531.08,2426.90,2728.01,600.42,582.92,55.38,0000 0000 0000 0000 000000
2016-08-01 00:11:56,0.00,2.44,0.00,28.43,32.27,34.87,14.13,47.92,1011.72,2014.76,2531.06,2426.80,2728.00,599.86,582.29,55.43,0000 0000 0000 0000 000000
2016-08-01 00:16:57,-0.00,2.44,0.00,28.44,32.27,34.92,14.16,47.87,1011.70,2014.63,2531.01,2426.63,2728.00,600.04,582.50,55.48,0000 0000 0000 0000 000000
2016-08-01 00:21:58,0.00,2.44,0.00,28.43,32.27,34.91,14.10,47.77,1011.72,2014.59,2531.00,2426.48,2728.00,599.97,582.55,55.53,0000 0000 0000 0000 000000
2016-08-01 00:26:59,-0.01,2.44,0.00,28.45,32.27,34.91,14.12,47.90,1011.73,2014.56,2531.00,2426.40,2728.00,600.09,582.51,55.58,0000 0000 0000 0000 000000
2016-08-01 00:32:01,0.01,2.44,0.00,28.44,32.27,34.90,14.13,47.83,1011.71,2014.51,2531.00,2426.36,2728.00,600.31,582.71,55.63,0000 0000 0000 0000 000000
2016-08-01 00:37:02,-0.01,2.44,0.00,28.45,32.27,34.92,14.19,47.77,1011.52,2014.62,2531.00,2426.45,2728.00,600.27,582.59,55.68,0000 0000 0000 0000 000000
2016-08-01 00:42:03,-0.02,2.44,0.00,28.45,32.27,34.94,14.12,47.79,1011.66,2014.28,2531.00,2426.24,2727.98,599.87,582.29,55.73,0000 0000 0000 0000 000000
2016-08-01 00:47:05,-0.00,2.44,0.00,28.38,32.27,34.99,14.11,48.05,1011.70,2014.14,2530.99,2426.10,2727.95,599.91,582.58,55.78,0000 0000 0000 0000 000000
2016-08-01 00:52:06,0.01,2.44,0.00,28.06,32.26,35.17,14.18,47.98,1011.63,2014.25,2530.94,2426.07,2727.96,599.80,582.98,55.83,0000 0000 0000 0000 000000
2016-08-01 00:57:07,0.01,2.44,0.00,27.72,32.24,35.16,14.21,48.03,1011.69,2014.27,2530.80,2426.07,2727.96,599.74,583.58,55.89,0000 0000 0000 0000 000000
2016-08-01 01:02:08,0.03,2.44,0.00,27.41,32.21,35.15,14.30,47.98,1011.62,2014.73,2530.80,2426.52,2727.99,600.07,584.47,55.94,0000 0000 0000 0000 000000
2016-08-01 01:07:10,-0.00,2.44,0.00,27.11,32.16,35.06,14.30,48.02,1011.46,2014.96,2530.87,2426.93,2727.99,600.18,585.08,55.99,0000 0000 0000 0000 000000
2016-08-01 01:12:11,0.00,2.44,0.00,26.87,32.10,34.71,14.32,48.10,1011.28,2014.99,2530.92,2426.99,2728.04,600.14,585.46,56.04,0000 0000 0000 0000 000000
2016-08-01 01:17:12,-0.00,2.44,0.00,26.81,32.02,34.39,14.23,48.08,1011.26,2015.11,2530.99,2427.05,2728.72,599.64,585.01,56.09,0000 0000 0000 0000 000000
2016-08-01 01:22:13,0.05,2.44,0.00,26.70,31.94,34.10,14.33,48.13,1011.27,2015.88,2530.99,2427.77,2728.99,599.55,585.15,56.14,0000 0000 0000 0000 000000
2016-08-01 01:27:15,-0.01,2.44,0.00,26.59,31.84,33.92,14.29,48.04,1011.25,2015.99,2531.06,2427.99,2729.39,600.06,585.83,56.19,0000 0000 0000 0000 000000
2016-08-01 01:32:16,0.02,2.44,0.00,26.49,31.74,33.79,14.40,48.17,1011.24,2016.38,2531.68,2428.45,2729.97,600.26,586.24,56.24,0000 0000 0000 0000 000000
2016-08-01 01:37:17,0.00,2.44,0.00,26.42,31.64,33.69,14.27,48.16,1011.22,2016.96,2531.99,2428.98,2730.51,599.86,586.06,56.29,0000 0000 0000 0000 000000
2016-08-01 01:42:19,-0.01,2.44,0.00,26.35,31.53,33.65,14.34,48.16,1011.18,2017.27,2532.44,2429.49,2731.01,600.02,586.16,56.34,0000 0000 0000 0000 000000
2016-08-01 01:47:20,0.02,2.44,0.00,26.30,31.43,33.64,14.27,48.13,1011.23,2017.94,2532.97,2429.98,2731.77,599.94,586.31,56.39,0000 0000 0000 0000 000000
2016-08-01 01:52:21,-0.02,2.44,0.00,26.24,31.33,33.61,14.31,48.19,1011.21,2018.15,2533.15,2430.57,2732.15,599.99,586.46,56.44,0000 0000 0000 0000 000000
2016-08-01 01:57:23,0.03,2.45,0.00,26.21,31.23,33.58,14.20,48.17,1011.18,2018.90,2533.88,2430.99,2732.92,599.76,586.26,56.49,0000 0000 0000 0000 000000
2016-08-01 02:02:24,-0.02,2.45,0.00,26.18,31.14,33.48,14.22,48.04,1011.24,2019.02,2534.00,2431.37,2733.16,599.81,586.52,56.54,0000 0000 0000 0000 000000
2016-08-01 02:07:25,0.05,2.45,0.00,26.17,31.04,33.37,14.25,48.11,1011.25,2019.73,2534.36,2431.96,2733.91,599.78,586.35,56.59,0000 0000 0000 0000 000000
2016-08-01 02:12:27,-0.01,2.45,0.00,26.16,30.95,33.28,14.33,48.28,1011.25,2019.99,2534.95,2432.16,2734.14,599.91,586.60,56.64,0000 0000 0000 0000 000000
2016-08-01 02:17:28,0.01,2.45,0.00,26.15,30.87,33.23,14.28,48.13,1011.25,2020.28,2535.03,2432.91,2734.90,600.07,586.72,56.69,0000 0000 0000 0000 000000
2016-08-01 02:22:29,0.03,2.45,0.00,26.13,30.79,33.18,14.30,48.29,1011.25,2020.90,2535.55,2433.00,2735.03,599.72,586.41,56.74,0000 0000 0000 0000 000000
2016-08-01 02:27:30,-0.04,2.45,0.00,26.10,30.71,33.15,14.31,48.12,1011.27,2021.01,2535.96,2433.38,2735.63,600.09,586.79,56.79,0000 0000 0000 0000 000000
2016-08-01 02:32:31,0.05,2.45,0.00,26.05,30.63,33.06,14.32,48.11,1011.26,2021.47,2536.00,2433.96,2735.99,600.12,586.99,56.85,0000 0000 0000 0000 000000
2016-08-01 02:37:33,0.01,2.45,0.00,26.04,30.56,32.96,14.27,48.27,1011.26,2021.97,2536.17,2434.01,2736.23,599.91,586.72,56.90,0000 0000 0000 0000 000000
2016-08-01 02:42:34,-0.05,2.45,0.00,26.07,30.49,32.91,14.26,48.13,1011.25,2022.00,2536.76,2434.51,2736.90,600.00,586.83,56.95,0000 0000 0000 0000 000000
2016-08-01 02:47:35,0.05,2.45,0.00,26.10,30.43,32.85,14.28,48.06,1011.26,2022.44,2536.99,2434.98,2737.00,600.01,586.83,57.00,0000 0000 0000 0000 000000
2016-08-01 02:52:37,0.01,2.45,0.00,26.12,30.37,32.83,14.21,47.98,1011.26,2022.96,2537.00,2435.02,2737.29,599.69,586.37,57.05,0000 0000 0000 0000 000000
2016-08-01 02:57:39,-0.03,2.45,0.00,26.16,30.32,32.89,14.16,48.10,1011.26,2022.99,2537.11,2435.47,2737.94,599.74,586.31,57.10,0000 0000 0000 0000 000000
2016-08-01 03:02:40,-0.01,2.45,0.00,26.18,30.28,32.90,14.38,48.23,1011.26,2023.02,2537.26,2435.87,2737.99,600.44,587.06,57.15,0000 0000 0000 0000 000000
2016-08-01 03:07:42,0.05,2.45,0.00,26.22,30.24,32.89,14.26,48.12,1011.26,2023.52,2537.71,2435.98,2737.99,599.85,586.37,57.20,0000 0000 0000 0000 000000
2016-08-01 03:12:43,0.02,2.45,0.00,26.25,30.21,32.87,14.23,48.17,1011.27,2023.90,2537.90,2435.99,2738.01,599.98,586.45,57.25,0000 0000 0000 0000 000000
2016-08-01 03:17:44,0.00,2.45,0.00,26.27,30.18,32.85,14.30,48.23,1011.25,2023.98,2537.98,2435.99,2738.09,599.99,586.41,57.30,0000 0000 0000 0000 000000
2016-08-01 03:22:45,0.00,2.45,0.00,26.29,30.16,32.87,14.19,48.08,1011.25,2023.99,2537.97,2436.00,2738.23,599.79,586.16,57.35,0000 0000 0000 0000 000000
2016-08-01 03:27:46,-0.01,2.45,0.00,26.32,30.15,32.81,14.28,48.22,1011.25,2023.99,2537.98,2436.01,2738.49,599.68,586.01,57.40,0000 0000 0000 0000 000000
2016-08-01 03:32:47,-0.00,2.45,0.00,26.36,30.12,32.78,14.25,48.17,1011.25,2023.99,2537.98,2436.08,2738.88,599.84,586.08,57.45,0000 0000 0000 0000 000000
2016-08-01 03:37:49,-0.00,2.45,0.00,26.37,30.12,32.74,14.18,48.04,1011.26,2024.02,2537.97,2436.21,2738.91,599.93,586.07,57.50,0000 0000 0000 0000 000000
2016-08-01 03:42:50,0.00,2.45,0.00,26.39,30.11,32.71,14.25,48.09,1011.27,2024.02,2537.97,2436.24,2738.92,599.86,586.02,57.55,0000 0000 0000 0000 000000
2016-08-01 03:47:51,0.01,2.45,0.00,26.40,30.10,32.69,14.27,48.10,1011.25,2024.08,2537.88,2436.31,2738.89,600.00,586.24,57.60,0000 0000 0000 0000 000000
2016-08-01 03:52:52,-0.00,2.45,0.00,26.42,30.10,32.70,14.23,48.02,1011.25,2024.09,2537.82,2436.31,2738.90,599.83,585.95,57.65,0000 0000 0000 0000 000000
2016-08-01 03:57:53,0.01,2.45,0.00,26.46,30.10,32.69,14.16,48.15,1011.31,2024.12,2537.61,2436.23,2738.87,599.80,585.89,57.70,0000 0000 0000 0000 000000
2016-08-01 04:02:54,0.00,2.45,0.00,26.49,30.10,32.68,14.31,47.96,1011.39,2024.22,2537.60,2436.32,2738.87,600.32,586.39,57.76,0000 0000 0000 0000 000000
2016-08-01 04:07:55,0.02,2.45,0.00,26.50,30.10,32.63,14.11,48.06,1011.29,2024.24,2537.17,2436.22,2738.67,599.68,585.65,57.81,0000 0000 0000 0000 000000
2016-08-01 04:12:56,0.02,2.45,0.00,26.52,30.10,32.60,14.21,48.06,1011.31,2024.39,2537.04,2436.13,2738.42,599.82,585.75,57.86,0000 0000 0000 0000 000000
2016-08-01 04:17:58,-0.01,2.45,0.00,26.55,30.11,32.60,14.27,48.12,1011.31,2024.16,2537.00,2436.03,2738.10,600.31,586.06,57.91,0000 0000 0000 0000 000000
2016-08-01 04:22:59,0.01,2.45,0.00,26.57,30.12,32.59,14.23,48.06,1011.37,2024.20,2537.00,2436.02,2738.02,600.05,585.91,57.96,0000 0000 0000 0000 000000
2016-08-01 04:28:00,-0.01,2.45,0.00,26.59,30.12,32.61,14.15,48.05,1011.29,2024.12,2537.00,2436.01,2738.01,599.69,585.43,58.01,0000 0000 0000 0000 000000
2016-08-01 04:33:02,0.00,2.45,0.00,26.59,30.13,32.59,14.20,47.97,1011.44,2024.10,2536.98,2436.00,2738.00,599.84,585.73,58.06,0000 0000 0000 0000 000000
2016-08-01 04:38:03,-0.00,2.45,0.00,26.62,30.15,32.61,14.25,48.08,1011.33,2024.08,2536.86,2436.00,2738.00,600.15,585.96,58.11,0000 0000 0000 0000 000000
2016-08-01 04:43:05,0.00,2.45,0.00,26.63,30.15,32.62,14.21,47.88,1011.27,2024.07,2536.63,2436.00,2737.99,599.77,585.39,58.16,0000 0000 0000 0000 000000
2016-08-01 04:48:06,0.01,2.45,0.00,26.63,30.17,32.65,14.18,47.94,1011.29,2024.05,2536.20,2436.00,2737.98,599.91,585.60,58.21,0000 0000 0000 0000 000000
2016-08-01 04:53:07,0.00,2.45,0.00,26.65,30.17,32.64,14.23,48.07,1011.26,2024.02,2536.05,2435.98,2737.94,599.96,585.70,58.26,0000 0000 0000 0000 000000
2016-08-01 04:58:08,0.01,2.46,0.00,26.67,30.19,32.67,14.21,48.02,1011.25,2024.01,2536.00,2435.97,2737.64,600.15,585.84,58.31,0000 0000 0000 0000 000000
2016-08-01 05:03:10,0.02,2.46,0.00,26.67,30.20,32.70,14.22,47.95,1011.25,2024.02,2536.00,2435.87,2737.13,599.81,585.35,58.36,0000 0000 0000 0000 000000
2016-08-01 05:08:11,0.01,2.46,0.00,26.70,30.21,32.69,14.24,48.16,1011.25,2024.01,2535.95,2435.54,2737.01,599.98,585.53,58.41,0000 0000 0000 0000 000000
2016-08-01 05:13:12,0.03,2.46,0.00,26.70,30.22,32.70,14.14,48.09,1011.32,2024.00,2535.52,2435.16,2737.00,599.77,585.33,58.46,0000 0000 0000 0000 000000
2016-08-01 05:18:14,0.02,2.46,0.00,26.71,30.23,32.72,14.15,48.01,1011.27,2024.00,2534.83,2435.00,2736.53,600.02,585.47,58.51,0000 0000 0000 0000 000000
2016-08-01 05:23:15,0.05,2.46,0.00,26.72,30.25,32.73,14.27,48.04,1011.33,2024.00,2534.01,2434.52,2736.01,600.06,585.67,58.56,0000 0000 0000 0000 000000
2016-08-01 05:28:16,0.02,2.46,0.00,26.73,30.25,32.75,14.21,48.08,1011.38,2024.00,2533.47,2434.02,2735.94,599.83,585.52,58.61,0000 0000 0000 0000 000000
2016-08-01 05:33:17,0.01,2.46,0.00,26.74,30.27,32.78,14.26,48.13,1011.53,2024.00,2533.08,2434.00,2735.48,600.57,586.19,58.66,0000 0000 0000 0000 000000
2016-08-01 05:38:18,-0.00,2.46,0.00,26.76,30.27,32.78,14.23,48.07,1011.72,2023.99,2533.02,2434.00,2735.21,599.90,585.67,58.72,0000 0000 0000 0000 000000
2016-08-01 05:43:20,0.00,2.47,0.00,26.76,30.30,32.79,14.23,48.08,1011.47,2023.99,2533.00,2434.00,2735.03,600.10,585.65,58.77,0000 0000 0000 0000 000000
2016-08-01 05:48:21,0.00,2.47,0.00,26.77,30.30,32.79,14.14,48.04,1011.68,2023.98,2532.89,2433.98,2735.00,599.77,585.67,58.82,0000 0000 0000 0000 000000
2016-08-01 05:53:22,0.01,2.47,0.00,26.76,30.32,32.80,14.19,48.03,1011.63,2023.99,2532.63,2433.94,2734.99,599.93,585.61,58.87,0000 0000 0000 0000 000000
2016-08-01 05:58:23,0.01,2.47,0.00,26.76,30.32,32.85,14.26,48.13,1011.64,2023.97,2532.22,2433.91,2734.97,600.05,585.71,58.92,0000 0000 0000 0000 000000
2016-08-01 06:03:24,0.00,2.47,0.00,26.77,30.35,32.83,14.19,48.08,1011.43,2023.96,2532.06,2433.85,2734.89,600.05,585.56,58.97,0000 0000 0000 0000 000000
2016-08-01 06:08:25,0.01,2.47,0.00,26.77,30.35,32.87,14.15,48.09,1011.42,2023.90,2532.01,2433.62,2734.59,599.67,585.27,59.02,0000 0000 0000 0000 000000
2016-08-01 06:13:27,0.01,2.47,0.00,26.78,30.37,32.90,14.16,47.99,1011.42,2023.81,2532.00,2433.30,2734.15,599.58,585.10,59.07,0000 0000 0000 0000 000000
2016-08-01 06:18:28,-0.01,2.47,0.00,26.78,30.37,32.89,14.25,48.00,1011.30,2023.66,2531.92,2433.08,2734.02,600.04,585.46,59.12,0000 0000 0000 0000 000000
2016-08-01 06:23:30,-0.02,2.47,0.00,26.79,30.38,32.88,14.27,48.08,1011.29,2023.30,2531.37,2433.00,2734.00,600.31,585.60,59.17,0000 0000 0000 0000 000000
2016-08-01 06:28:31,-0.01,2.47,0.00,26.80,30.40,32.93,14.22,48.01,1011.25,2023.18,2531.11,2433.00,2734.00,599.80,585.25,59.22,0000 0000 0000 0000 000000
2016-08-01 06:33:32,-0.01,2.47,0.00,26.82,30.40,32.96,14.27,48.20,1011.25,2023.04,2531.03,2433.00,2733.97,600.46,585.86,59.27,0000 0000 0000 0000 000000
2016-08-01 06:38:33,0.00,2.47,0.00,26.81,30.41,32.97,14.16,47.96,1011.25,2023.02,2531.01,2433.00,2733.95,600.17,585.52,59.32,0000 0000 0000 0000 000000
2016-08-01 06:43:35,0.00,2.47,0.00,26.82,30.42,32.97,14.19,47.91,1011.24,2023.04,2531.00,2433.00,2733.71,599.95,585.29,59.37,0000 0000 0000 0000 000000
2016-08-01 06:48:36,0.00,2.47,0.00,26.82,30.42,32.96,14.20,48.02,1011.20,2023.01,2530.97,2432.98,2733.31,599.82,585.19,59.42,0000 0000 0000 0000 000000
2016-08-01 06:53:37,0.01,2.47,0.00,26.82,30.43,33.00,14.25,48.02,1011.20,2023.00,2530.77,2432.94,2733.05,600.49,585.80,59.47,0000 0000 0000 0000 000000
2016-08-01 06:58:38,0.02,2.47,0.00,26.83,30.45,33.01,14.24,48.05,1011.22,2023.00,2530.19,2432.90,2733.00,600.19,585.44,59.52,0000 0000 0000 0000 000000
2016-08-01 07:03:39,0.01,2.47,0.00,26.84,30.45,32.99,14.23,47.95,1011.06,2023.00,2530.03,2432.75,2733.00,599.92,585.02,59.57,0000 0000 0000 0000 000000
2016-08-01 07:33:52,0.00,0.00,0.00,26.52,30.58,29.72,12.94,42.43,1010.68,1893.28,3241.96,2884.05,3282.87,549.70,536.52,0.01,0000 0000 0000 0000 000000
2016-08-01 07:38:53,0.00,0.00,0.00,26.73,30.47,31.12,14.08,45.87,1010.77,2026.00,3465.83,3085.06,3512.25,599.92,585.17,0.06,0000 0000 0000 0000 000000
2016-08-01 07:43:54,0.00,0.00,0.00,26.80,30.37,31.71,14.09,45.97,1010.80,2025.85,3464.89,3084.31,3511.11,599.86,584.93,0.11,0000 0000 0000 0000 000000
2016-08-01 07:48:55,0.01,0.00,0.00,26.62,30.30,32.17,14.13,46.16,1010.82,2025.97,3464.25,3084.41,3511.00,600.01,585.38,0.16,0000 0000 0000 0000 000000
2016-08-01 07:53:57,0.00,0.00,0.00,26.54,30.24,32.49,14.25,46.06,1010.92,2025.99,3464.01,3084.62,3510.97,600.19,585.87,0.21,0000 0000 0000 0000 000000
2016-08-01 07:58:58,0.00,0.00,0.00,26.54,30.21,32.69,14.16,46.01,1010.85,2025.99,3464.00,3084.92,3510.97,600.09,585.70,0.26,0000 0000 0000 0000 000000
2016-08-01 08:03:59,0.00,0.00,0.00,26.52,30.18,32.79,14.19,46.08,1010.76,2025.99,3464.00,3084.98,3510.96,599.93,585.58,0.31,0000 0000 0000 0000 000000
2016-08-01 08:09:00,-0.00,0.00,0.00,26.53,30.16,32.81,14.20,45.98,1010.77,2026.00,3464.00,3084.99,3510.87,599.90,585.34,0.36,0000 0000 0000 0000 000000
2016-08-01 08:14:01,0.00,0.00,0.00,26.52,30.15,32.83,14.23,45.88,1010.77,2026.02,3463.99,3084.99,3510.60,600.09,585.98,0.41,0000 0000 0000 0000 000000
2016-08-01 08:19:03,0.00,0.00,0.00,26.52,30.15,32.74,14.17,45.92,1010.77,2026.03,3463.97,3084.99,3510.15,599.90,585.59,0.46,0000 0000 0000 0000 000000
2016-08-01 08:24:04,0.00,0.00,0.00,26.52,30.15,32.62,14.17,45.81,1010.78,2026.07,3463.96,3084.99,3510.05,599.87,585.47,0.51,0000 0000 0000 0000 000000
2016-08-01 08:29:05,0.01,0.00,0.00,26.56,30.15,32.64,14.22,45.88,1010.77,2026.11,3463.70,3084.99,3510.00,600.07,585.66,0.56,0000 0000 0000 0000 000000
2016-08-01 08:34:06,0.01,0.00,0.00,26.56,30.15,32.61,14.23,45.77,1010.76,2026.13,3463.37,3084.99,3510.00,600.20,585.81,0.61,0000 0000 0000 0000 000000
2016-08-01 08:39:07,-0.00,0.00,0.00,26.56,30.15,32.65,14.23,45.79,1010.76,2026.11,3463.12,3084.99,3509.96,600.13,585.61,0.66,0000 0000 0000 0000 000000
2016-08-01 08:44:08,0.00,0.00,0.00,26.55,30.16,32.66,14.16,45.76,1010.76,2026.09,3463.00,3084.99,3509.80,599.89,585.50,0.71,0000 0000 0000 0000 000000
2016-08-01 08:49:10,0.01,0.00,0.00,26.55,30.17,32.64,14.19,45.80,1010.73,2026.12,3462.99,3084.99,3509.30,599.87,585.42,0.76,0000 0000 0000 0000 000000
2016-08-01 08:54:11,-0.00,0.00,0.00,26.58,30.17,32.69,14.19,45.73,1010.75,2026.05,3462.89,3084.98,3509.02,600.14,585.70,0.81,0000 0000 0000 0000 000000
2016-08-01 08:59:12,0.01,0.00,0.00,26.59,30.18,32.68,14.13,45.61,1010.56,2026.05,3462.53,3084.97,3509.00,600.10,585.53,0.86,0000 0000 0000 0000 000000
2016-08-01 09:04:13,0.01,0.00,0.00,26.58,30.20,32.68,14.18,45.54,1010.46,2026.10,3462.09,3084.89,3508.98,600.02,585.40,0.91,0000 0000 0000 0000 000000
2016-08-01 09:09:14,-0.00,0.00,0.00,26.57,30.20,32.70,14.19,45.46,1010.35,2026.02,3462.00,3084.66,3508.76,600.24,585.54,0.96,0000 0000 0000 0000 000000
2016-08-01 09:14:16,0.00,0.00,0.00,26.59,30.21,32.71,14.17,45.38,1010.27,2026.03,3462.00,3084.58,3508.34,599.87,585.09,1.01,0000 0000 0000 0000 000000
2016-08-01 09:19:16,0.01,0.01,0.00,26.57,30.22,32.77,14.18,45.44,1010.27,2026.01,3461.97,3084.23,3508.05,599.95,585.22,1.06,0000 0000 0000 0000 000000
2016-08-01 09:24:18,0.01,0.01,0.00,26.60,30.22,32.79,14.23,45.61,1010.27,2026.00,3461.51,3084.07,3508.00,600.32,585.56,1.11,0000 0000 0000 0000 000000
2016-08-01 09:29:19,0.01,0.01,0.00,26.59,30.24,32.78,14.15,45.43,1010.27,2026.01,3461.12,3084.02,3507.99,599.89,585.11,1.16,0000 0000 0000 0000 000000
2016-08-01 09:34:20,0.00,0.01,0.00,26.58,30.25,32.81,14.15,45.44,1010.26,2026.00,3461.00,3084.02,3507.94,599.71,585.02,1.21,0000 0000 0000 0000 000000
2016-08-01 09:39:22,0.01,0.01,0.00,26.57,30.25,32.88,14.13,45.54,1010.26,2026.00,3461.00,3084.00,3507.46,599.83,585.02,1.26,0000 0000 0000 0000 000000
2016-08-01 09:44:23,0.00,0.01,0.00,26.57,30.26,32.86,14.22,45.46,1010.25,2026.00,3460.92,3084.00,3507.03,600.24,585.49,1.31,0000 0000 0000 0000 000000
2016-08-01 09:49:24,0.00,0.01,0.00,26.56,30.27,32.88,14.19,45.48,1010.01,2026.00,3460.90,3084.00,3507.00,599.84,584.88,1.36,0000 0000 0000 0000 000000
2016-08-01 09:54:25,0.01,0.01,0.00,26.55,30.27,32.90,14.20,45.60,1009.80,2026.00,3460.28,3084.00,3507.00,599.94,585.01,1.41,0000 0000 0000 0000 000000
2016-08-01 09:59:27,0.00,0.01,0.00,26.55,30.27,32.99,14.25,45.43,1009.98,2026.00,3460.03,3083.98,3506.97,600.09,585.18,1.46,0000 0000 0000 0000 000000
2016-08-01 10:04:28,0.00,0.01,0.00,26.52,30.27,33.01,14.18,45.50,1010.03,2026.00,3460.01,3083.98,3506.95,599.66,584.90,1.51,0000 0000 0000 0000 000000
2016-08-01 10:09:30,0.00,0.01,0.00,26.50,30.27,33.05,14.22,45.64,1009.82,2026.00,3460.00,3083.98,3506.67,599.96,585.12,1.56,0000 0000 0000 0000 000000
2016-08-01 10:14:31,0.01,0.01,0.00,26.50,30.27,33.06,14.23,45.54,1009.78,2026.00,3459.97,3083.95,3506.14,599.86,585.01,1.61,0000 0000 0000 0000 000000
2016-08-01 10:19:32,0.00,0.01,0.00,26.48,30.27,33.10,14.23,45.46,1009.78,2025.99,3459.91,3083.95,3506.05,599.98,585.14,1.66,0000 0000 0000 0000 000000
2016-08-01 10:24:33,0.01,0.01,0.00,26.48,30.27,33.10,14.27,45.45,1009.78,2025.99,3459.70,3083.92,3506.00,600.10,585.20,1.71,0000 0000 0000 0000 000000
2016-08-01 10:29:35,0.01,0.01,0.00,26.46,30.27,33.12,14.18,45.48,1009.65,2025.99,3459.18,3083.87,3506.00,599.82,584.89,1.76,0000 0000 0000 0000 000000
2016-08-01 10:34:36,-0.00,0.01,0.00,26.45,30.27,33.14,14.18,45.39,1009.42,2025.99,3459.05,3083.89,3506.00,600.08,585.10,1.81,0000 0000 0000 0000 000000
2016-08-01 10:39:37,0.00,0.01,0.00,26.43,30.27,33.11,14.23,45.42,1009.44,2025.99,3459.02,3083.87,3506.00,600.19,585.21,1.86,0000 0000 0000 0000 000000
2016-08-01 10:44:39,0.00,0.01,0.00,26.43,30.27,33.11,14.17,45.36,1009.61,2025.99,3459.00,3083.82,3505.98,599.83,584.99,1.91,0000 0000 0000 0000 000000
2016-08-01 10:49:40,0.03,0.01,0.00,26.41,30.26,33.15,14.19,45.43,1009.78,2025.99,3458.72,3083.46,3505.65,599.80,585.11,1.97,0000 0000 0000 0000 000000
2016-08-01 10:54:41,0.17,0.02,0.00,26.42,30.25,33.16,14.20,45.32,1009.50,2025.99,3455.10,3081.35,3503.06,600.29,585.21,2.02,0000 0000 0000 0000 000000
2016-08-01 10:59:43,0.01,0.02,0.00,26.39,30.25,33.17,14.20,45.48,1009.31,2025.99,3454.01,3080.73,3502.05,599.93,584.95,2.07,0000 0000 0000 0000 000000
2016-08-01 11:04:44,0.00,0.02,0.00,26.39,30.25,33.17,14.18,45.42,1009.44,2025.99,3453.96,3080.66,3502.01,600.45,585.55,2.12,0000 0000 0000 0000 000000
2016-08-01 11:09:45,0.01,0.02,0.00,26.38,30.24,33.14,14.21,45.40,1009.75,2025.99,3453.69,3080.50,3502.00,600.09,585.35,2.17,0000 0000 0000 0000 000000
2016-08-01 11:14:47,0.00,0.02,0.00,26.34,30.22,33.14,14.23,45.50,1009.69,2026.01,3453.42,3080.68,3502.00,600.47,585.92,2.22,0000 0000 0000 0000 000000
2016-08-01 11:19:48,0.01,0.02,0.00,26.34,30.22,33.14,14.28,45.47,1009.68,2026.01,3453.14,3080.62,3502.00,600.07,585.43,2.27,0000 0000 0000 0000 000000
2016-08-01 11:24:49,-0.01,0.02,0.00,26.32,30.22,33.14,14.22,45.43,1009.37,2026.02,3453.04,3080.66,3501.98,600.00,585.16,2.32,0000 0000 0000 0000 000000
2016-08-01 11:29:50,0.00,0.02,0.00,26.31,30.20,33.13,14.18,45.42,1009.31,2026.06,3453.01,3080.75,3501.98,600.04,585.26,2.37,0000 0000 0000 0000 000000
2016-08-01 11:34:51,0.00,0.02,0.00,26.29,30.20,33.12,14.22,45.32,1009.31,2026.08,3453.01,3080.83,3501.97,600.26,585.46,2.42,0000 0000 0000 0000 000000
2016-08-01 11:39:53,0.01,0.02,0.00,26.30,30.18,33.10,14.22,45.33,1009.31,2026.17,3453.00,3080.94,3501.97,600.20,585.39,2.47,0000 0000 0000 0000 000000
2016-08-01 11:44:54,0.01,0.02,0.00,26.32,30.17,33.09,14.21,45.28,1009.29,2026.22,3452.99,3080.90,3501.91,600.07,585.17,2.52,0000 0000 0000 0000 000000
2016-08-01 11:49:55,0.06,0.02,0.00,26.32,30.16,33.06,14.23,45.43,1009.29,2026.46,3452.32,3080.32,3501.32,600.14,585.37,2.57,0000 0000 0000 0000 000000
2016-08-01 11:54:56,0.03,0.03,0.00,26.31,30.15,33.04,14.26,45.39,1009.26,2026.83,3451.92,3080.02,3501.00,600.17,585.36,2.62,0000 0000 0000 0000 000000
2016-08-01 11:59:57,0.02,0.03,0.00,26.29,30.15,33.03,14.19,45.38,1009.23,2026.92,3451.39,3080.03,3501.00,599.95,585.13,2.67,0000 0000 0000 0000 000000
2016-08-01 12:04:59,0.00,0.03,0.00,26.28,30.12,33.00,14.14,45.43,1009.25,2026.94,3451.10,3080.02,3501.00,599.82,585.04,2.72,0000 0000 0000 0000 000000
2016-08-01 12:10:00,0.00,0.03,0.00,26.29,30.12,32.99,14.18,45.39,1009.13,2026.96,3451.02,3080.01,3500.97,599.79,584.88,2.77,0000 0000 0000 0000 000000
2016-08-01 12:15:01,-0.00,0.03,0.00,26.28,30.11,32.98,14.25,45.49,1009.02,2026.99,3451.00,3080.03,3500.95,600.28,585.29,2.82,0000 0000 0000 0000 000000
2016-08-01 12:20:02,0.00,0.03,0.00,26.26,30.10,32.96,14.16,45.30,1008.91,2026.98,3451.00,3080.04,3500.92,599.44,584.52,2.87,0000 0000 0000 0000 000000
2016-08-01 12:25:04,0.00,0.03,0.00,26.25,30.10,32.95,14.19,45.34,1008.82,2026.98,3450.99,3080.09,3500.92,600.03,585.11,2.92,0000 0000 0000 0000 000000
2016-08-01 12:30:05,0.00,0.03,0.00,26.22,30.09,32.90,14.18,45.25,1008.80,2026.99,3450.98,3080.11,3500.86,600.13,585.24,2.97,0000 0000 0000 0000 000000
2016-08-01 12:35:06,0.00,0.03,0.00,26.22,30.07,32.91,14.18,45.33,1008.80,2026.99,3450.98,3080.23,3500.71,599.76,584.85,3.02,0000 0000 0000 0000 000000
2016-08-01 12:40:07,0.01,0.03,0.00,26.21,30.07,32.91,14.12,45.33,1008.78,2026.99,3450.80,3080.20,3500.24,599.56,584.75,3.07,0000 0000 0000 0000 000000
2016-08-01 12:45:08,0.03,0.03,0.00,26.21,30.06,32.93,14.21,45.42,1008.56,2026.99,3449.68,3080.07,3499.96,600.17,585.17,3.12,0000 0000 0000 0000 000000
2016-08-01 12:50:10,0.03,0.03,0.00,26.20,30.05,32.93,14.15,45.31,1008.33,2026.99,3448.72,3079.69,3499.15,599.68,584.42,3.17,0000 0000 0000 0000 000000
2016-08-01 12:55:11,0.00,0.03,0.00,26.19,30.05,32.94,14.22,45.41,1008.33,2026.99,3448.16,3079.51,3499.00,600.09,585.01,3.22,0000 0000 0000 0000 000000
2016-08-01 13:00:12,0.00,0.03,0.00,26.19,30.04,32.94,14.10,45.39,1008.33,2027.01,3448.03,3079.65,3499.00,599.78,584.66,3.27,0000 0000 0000 0000 000000
2016-08-01 13:05:14,0.01,0.03,0.00,26.19,30.02,32.92,14.14,45.29,1008.33,2027.05,3447.99,3079.54,3499.00,599.97,584.82,3.32,0000 0000 0000 0000 000000
2016-08-01 13:10:15,0.02,0.04,0.00,26.17,30.02,32.93,14.19,45.31,1008.33,2027.07,3447.52,3079.09,3498.89,600.17,585.13,3.37,0000 0000 0000 0000 000000
2016-08-01 13:15:16,0.03,0.04,0.00,26.17,30.00,32.86,14.19,45.47,1008.32,2027.24,3447.04,3079.05,3498.66,600.31,585.18,3.42,0000 0000 0000 0000 000000
2016-08-01 13:20:17,0.01,0.04,0.00,26.15,30.00,32.93,14.15,45.42,1008.35,2027.30,3447.00,3079.03,3498.11,600.08,585.06,3.47,0000 0000 0000 0000 000000